METEOR 1-5 DEB

Satellite information

Favourite Embed

Satellite Type and Status

DEBRISIN ORBIT

Key statistics

Satellite METEOR 1-5 DEB at a glance.

Uptime

20214

Days in orbit

Revolutions

≈ 14.2

Per day

Orbit

LEO

Low Earth Orbit

Inclination

81.2

Latest

Satellite identification and parameters

Extended collection of information and parameters for METEOR 1-5 DEB.

Object identification

Identified? True

Debris? True

Object name: METEOR 1-5 DEB

International designator: 1970-047C

Object number (NORAD): 58396

Object ID (CCSDS): 58396

Country: COMMONWEALTH OF INDEPENDENT STATES (CIS)

Current information (Y/N): Y

RCS size: SMALL

Orbital parameters

Period: 101.191 minutes

Inclination: 81.2114 deg

SMA: 7193.194 km

Apoapsis: 837.968 km

Periapsis: 792.15 km

RAAN: 102.315 deg

Eccentricy: 0.00318482

Argument of periapsis: 338.3427 deg

Mean anomaly: 21.6402 deg

Mean motion: 14.23049802 rev/day

Mean motion (dot): 0.00003693 rev/day2

B* drag term: 0.0016249904 1/REarth

Two-line elements (TLE)

Creation date: Oct. 26, 2025, 2:54 a.m.

Reference frame: TEME

Reference center: EARTH

Epoch: Oct. 25, 2025, 12:04 p.m. UTC

TLE line 0: 0 METEOR 1-5 DEB

TLE line 1: 1 58396U 70047C 25298.50288960 .00003693 00000-0 16250-2 0 9990

TLE line 2: 2 58396 81.2114 102.3150 0031848 338.3427 21.6402 14.23049802103558

Live tracking on map

Real-time ground track for satellite METEOR 1-5 DEB.

In-orbit conjunctions

A list of the most updated potential collisions computed for object METEOR 1-5 DEB.

Target Orbit TCA Probability of collision Miss distance Type
CZ-4B DEB LEO 2025-09-28 09:45:39 0.0001433131 183.0 (m) DEBRIS
CZ-6A DEB SSO 2025-09-26 18:14:30 0.0003183858 99.0 (m) DEBRIS
FENGYUN 1C DEB SSO 2025-05-17 20:17:45 0.000162474 133.0 (m) DEBRIS
CZ-6A DEB SSO 2024-10-19 14:59:34 0.0002222296 114.0 (m) DEBRIS

Associated space launch

The Meteor-1 series was the first series of Soviet meteorological satellites.

METEOR 1-5 DEB was lifted into orbit during the mission ‘Vostok 8A92M | Meteor-1 5 (17L)’, on board a Vostok 8A92M space rocket.

The launch took place on June 23, 1970, 2:15 p.m. from 41/1.

For more information about the launch, click the button.

Launch to space Vostok 8A92M | Meteor-1 5 (17L)
Vostok 8A92M | Meteor-1 5 (17L)

Agency: N/A

Status: Launch Successful

Launch date: June 23, 1970, 2:15 p.m. UTC

Rocket: Vostok 8A92M

Launch pad: 41/1

Location: Plesetsk Cosmodrome, Russian Federation

...

Latest news about this satellite

There are no fresh news available about this satellite. Check back as we update our databases every day.


Newsletter sign-up

Weekly statistics, charts and insights to help you stay on top of the space industry.